Location: Napier
(39.4830°S, 176.9170°E)
Time: 23:37:28
(UTC+13:00)

SL-08 R/B - Pass Details

Date: 24 January 2019
Orbit: 946 x 994 km, 83.0° (Epoch: 21 February)

Event Time Altitude Azimuth Distance (km) Brightness Sun altitude
Exits shadow 22:39:26 18° 350° (N) 2,166 6.0 -19.8°
Maximum altitude 22:44:11 82° 264° (W) 974 4.5 -20.4°
Drops below altitude 10° 22:50:26 10° 175° (S) 2,722 7.4 -21.2°
Sets 22:52:58 0° 173° (S) 3,682 8.2 -21.5°
